| time (UTC) | temp F | wind direction | speed MPH | gust MPH | rain 1hr in | rain 24hr in | rain mn in | humidity % | barometer mb |
| 20260902163658 | 64 | 180 | 0.0 | 0.0 | 0.00 | 0.00 | 0.00 | 91 | 1034.9 |
| 20260902161505 | 64 | 180 | 0.0 | 0.0 | 0.00 | 0.00 | 0.00 | 91 | 1034.8 |
| 20260902160217 | 64 | 180 | 0.0 | 0.0 | 0.00 | 0.00 | 0.00 | 91 | 1034.9 |
| 20260902154512 | 64 | 180 | 0.0 | 0.0 | 0.00 | 0.00 | 0.00 | 91 | 1034.8 |
| 20260902151748 | 64 | 180 | 0.0 | 0.0 | 0.00 | 0.00 | 0.00 | 91 | 1034.8 |
| 20260902142553 | 63 | 180 | 0.0 | 0.0 | 0.00 | 0.00 | 0.00 | 92 | 1034.6 |
| 20260902133534 | 63 | 180 | 0.0 | 0.0 | 0.00 | 0.00 | 0.00 | 92 | 1034.5 |
| 20260902132534 | 63 | 180 | 0.0 | 0.0 | 0.00 | 0.00 | 0.00 | 91 | 1034.4 |
| 20260902131539 | 64 | 180 | 0.0 | 0.0 | 0.00 | 0.00 | 0.00 | 91 | 1034.4 |
| 20260902130536 | 64 | 180 | 0.0 | 0.0 | 0.00 | 0.00 | 0.00 | 91 | 1034.3 |
| 20260902125536 | 64 | 180 | 0.0 | 0.0 | 0.00 | 0.00 | 0.00 | 92 | 1034.3 |
| 20260902124539 | 64 | 180 | 0.0 | 0.0 | 0.00 | 0.00 | 0.00 | 92 | 1034.2 |
| 20260902123634 | 64 | 180 | 0.0 | 0.0 | 0.00 | 0.00 | 0.00 | 92 | 1034.0 |
| 20260902122734 | 64 | 180 | 0.0 | 0.0 | 0.00 | 0.00 | 0.00 | 92 | 1034.2 |
| 20260902121736 | 64 | 180 | 0.0 | 0.0 | 0.00 | 0.00 | 0.00 | 92 | 1034.2 |
| 20260902120737 | 64 | 71 | 0.0 | 0.0 | 0.00 | 0.00 | 0.00 | 92 | 1034.0 |
| 20260902115835 | 64 | 78 | 0.0 | 0.0 | 0.00 | 0.00 | 0.00 | 92 | 1034.0 |
| 20260902114836 | 64 | 81 | 0.0 | 0.0 | 0.00 | 0.00 | 0.00 | 92 | 1034.1 |
| 20260902113837 | 64 | 67 | 0.0 | 0.0 | 0.00 | 0.00 | 0.00 | 92 | 1034.1 |
| 20260902111934 | 64 | 180 | 0.0 | 0.0 | 0.00 | 0.00 | 0.00 | 91 | 1034.2 |
| 20260902110936 | 64 | 180 | 0.0 | 0.0 | 0.00 | 0.00 | 0.00 | 91 | 1034.1 |
| 20260902105935 | 64 | 78 | 0.0 | 0.0 | 0.00 | 0.00 | 0.00 | 92 | 1034.1 |
| 20260902104936 | 64 | 67 | 0.0 | 0.0 | 0.00 | 0.00 | 0.00 | 91 | 1034.2 |
| 20260902104034 | 65 | 67 | 0.0 | 0.0 | 0.00 | 0.00 | 0.00 | 92 | 1034.2 |
| 20260902103038 | 65 | 66 | 0.0 | 0.0 | 0.00 | 0.00 | 0.00 | 92 | 1034.4 |
| 20260902102036 | 65 | 67 | 0.0 | 0.0 | 0.00 | 0.00 | 0.00 | 93 | 1034.3 |
| 20260902101036 | 65 | 67 | 0.0 | 0.0 | 0.00 | 0.00 | 0.00 | 92 | 1034.4 |
| 20260902100037 | 65 | 67 | 0.0 | 0.0 | 0.00 | 0.00 | 0.00 | 92 | 1034.4 |
| 20260902095036 | 65 | 67 | 0.0 | 0.0 | 0.00 | 0.00 | 0.00 | 92 | 1034.6 |
| 20260902094037 | 65 | 67 | 0.0 | 0.0 | 0.00 | 0.00 | 0.00 | 92 | 1034.5 |
| 20260902093135 | 65 | 67 | 0.0 | 0.0 | 0.00 | 0.00 | 0.00 | 91 | 1034.6 |
| 20260902092134 | 66 | 67 | 0.0 | 0.0 | 0.00 | 0.00 | 0.00 | 92 | 1034.7 |
| 20260902085136 | 66 | 62 | 0.0 | 0.0 | 0.00 | 0.00 | 0.00 | 91 | 1034.9 |
| 20260902084136 | 66 | 45 | 0.0 | 0.0 | 0.00 | 0.00 | 0.00 | 90 | 1035.0 |
| 20260902083135 | 66 | 67 | 0.0 | 0.0 | 0.00 | 0.00 | 0.00 | 89 | 1035.0 |
| 20260902082134 | 66 | 67 | 0.0 | 0.0 | 0.00 | 0.00 | 0.00 | 89 | 1034.9 |
| 20260902081136 | 66 | 67 | 0.0 | 0.0 | 0.00 | 0.00 | 0.00 | 90 | 1034.9 |
| 20260902080136 | 66 | 67 | 0.0 | 0.0 | 0.00 | 0.00 | 0.00 | 89 | 1034.8 |
| 20260902072334 | 67 | 67 | 0.0 | 0.0 | 0.00 | 0.00 | 0.00 | 87 | 1034.8 |
| 20260902071335 | 68 | 360 | 0.0 | 0.0 | 0.00 | 0.00 | 0.00 | 86 | 1034.7 |
| 20260902070338 | 68 | 360 | 0.0 | 0.0 | 0.00 | 0.00 | 0.00 | 87 | 1034.6 |
| 20260902065426 | 68 | 360 | 0.0 | 0.0 | 0.00 | 0.00 | 0.00 | 87 | 1034.5 |
| 20260902064427 | 68 | 360 | 0.0 | 0.0 | 0.00 | 0.00 | 0.00 | 87 | 1034.3 |
| 20260902063427 | 68 | 360 | 0.0 | 0.0 | 0.00 | 0.00 | 0.00 | 88 | 1034.3 |
| 20260902062428 | 68 | 337 | 0.0 | 0.0 | 0.00 | 0.00 | 0.00 | 88 | 1034.4 |
| 20260902061426 | 68 | 315 | 0.0 | 0.0 | 0.00 | 0.00 | 0.00 | 88 | 1034.2 |
| 20260902060426 | 68 | 315 | 0.0 | 0.0 | 0.00 | 0.00 | 0.00 | 88 | 1034.2 |
| 20260902055429 | 68 | 315 | 0.0 | 0.0 | 0.00 | 0.00 | 0.00 | 88 | 1034.3 |
| 20260902054426 | 67 | 315 | 0.0 | 0.0 | 0.00 | 0.00 | 0.00 | 87 | 1034.2 |
| 20260902053430 | 68 | 315 | 0.0 | 0.0 | 0.00 | 0.00 | 0.00 | 86 | 1034.3 |
| 20260902052427 | 68 | 315 | 0.0 | 0.0 | 0.00 | 0.00 | 0.00 | 87 | 1034.2 |
| 20260902051427 | 68 | 315 | 0.0 | 0.0 | 0.00 | 0.00 | 0.00 | 86 | 1034.3 |
| 20260902045427 | 68 | 315 | 0.0 | 0.0 | 0.00 | 0.00 | 0.00 | 86 | 1034.4 |
| 20260902044427 | 68 | 315 | 0.0 | 0.0 | 0.00 | 0.00 | 0.00 | 86 | 1034.0 |
| 20260902043426 | 68 | 315 | 0.0 | 0.0 | 0.00 | 0.00 | 0.00 | 86 | 1034.0 |
| 20260902042426 | 69 | 180 | 0.0 | 0.0 | 0.00 | 0.00 | 0.00 | 85 | 1034.0 |
| 20260902041427 | 69 | 180 | 0.0 | 0.0 | 0.00 | 0.00 | 0.00 | 86 | 1033.8 |
| 20260902040427 | 69 | 180 | 0.0 | 0.0 | 0.00 | 0.00 | 0.00 | 86 | 1033.6 |
| 20260902035425 | 69 | 315 | 0.0 | 0.0 | 0.00 | 0.00 | 0.00 | 86 | 1033.4 |
| 20260902034427 | 69 | 315 | 0.0 | 0.0 | 0.00 | 0.00 | 0.00 | 85 | 1033.2 |
| 20260902033427 | 69 | 315 | 0.0 | 0.0 | 0.00 | 0.00 | 0.00 | 85 | 1033.0 |
| 20260902031426 | 69 | 315 | 0.0 | 0.0 | 0.00 | 0.00 | 0.00 | 85 | 1032.7 |
| 20260902030427 | 70 | 317 | 0.0 | 0.0 | 0.00 | 0.00 | 0.00 | 85 | 1032.7 |
| 20260902025426 | 70 | 324 | 0.0 | 0.0 | 0.00 | 0.00 | 0.00 | 84 | 1032.6 |
| 20260902024426 | 70 | 315 | 0.0 | 0.0 | 0.00 | 0.00 | 0.00 | 82 | 1032.6 |
| 20260902023426 | 70 | 330 | 0.0 | 0.0 | 0.00 | 0.00 | 0.00 | 81 | 1032.5 |
| 20260902022429 | 70 | 315 | 0.0 | 0.0 | 0.00 | 0.00 | 0.00 | 82 | 1032.5 |
| 20260902021526 | 71 | 315 | 0.0 | 0.0 | 0.00 | 0.00 | 0.00 | 82 | 1032.6 |
| 20260902015627 | 72 | 337 | 0.0 | 0.0 | 0.00 | 0.00 | 0.00 | 78 | 1032.5 |
| 20260902014627 | 72 | 336 | 0.0 | 0.0 | 0.00 | 0.00 | 0.00 | 76 | 1032.6 |
| 20260902013628 | 73 | 337 | 0.0 | 0.0 | 0.00 | 0.00 | 0.00 | 74 | 1032.5 |
| 20260902012725 | 74 | 180 | 0.0 | 0.0 | 0.00 | 0.00 | 0.00 | 73 | 1032.4 |
| 20260902011727 | 75 | 180 | 0.0 | 0.0 | 0.00 | 0.00 | 0.00 | 73 | 1032.5 |
| 20260902010826 | 75 | 221 | 0.0 | 0.0 | 0.00 | 0.00 | 0.00 | 72 | 1032.4 |
| 20260902005826 | 75 | 201 | 0.0 | 0.0 | 0.00 | 0.00 | 0.00 | 72 | 1032.3 |
| 20260902002027 | 76 | 320 | 0.0 | 0.0 | 0.00 | 0.00 | 0.00 | 71 | 1032.4 |
| 20260902001027 | 76 | 330 | 0.0 | 0.0 | 0.00 | 0.00 | 0.00 | 71 | 1032.5 |
| 20260901235126 | 76 | 319 | 0.0 | 0.0 | 0.00 | 0.00 | 0.00 | 72 | 1032.5 |
| 20260901234127 | 76 | 326 | 0.0 | 0.0 | 0.00 | 0.00 | 0.00 | 71 | 1032.8 |
| 20260901233226 | 76 | 209 | 0.0 | 0.0 | 0.00 | 0.00 | 0.00 | 70 | 1032.9 |
| 20260901232227 | 76 | 192 | 0.0 | 0.0 | 0.00 | 0.00 | 0.00 | 71 | 1032.9 |
| 20260901231325 | 76 | 331 | 0.0 | 0.0 | 0.00 | 0.00 | 0.00 | 71 | 1032.8 |
| 20260901230328 | 76 | 328 | 0.0 | 0.0 | 0.00 | 0.00 | 0.00 | 71 | 1032.8 |
| 20260901225328 | 76 | 287 | 0.0 | 0.0 | 0.00 | 0.00 | 0.00 | 72 | 1032.9 |
| 20260901224328 | 77 | 191 | 0.0 | 0.0 | 0.00 | 0.00 | 0.00 | 72 | 1033.0 |
| 20260901223329 | 77 | 316 | 0.0 | 0.0 | 0.00 | 0.00 | 0.00 | 72 | 1033.0 |
| 20260901222426 | 77 | 325 | 0.0 | 0.0 | 0.00 | 0.00 | 0.00 | 72 | 1033.0 |
| 20260901221427 | 77 | 321 | 0.0 | 0.0 | 0.00 | 0.00 | 0.00 | 73 | 1033.1 |
| 20260901220428 | 77 | 310 | 0.0 | 0.0 | 0.00 | 0.00 | 0.00 | 73 | 1033.2 |
| 20260901215428 | 77 | 319 | 0.0 | 0.0 | 0.00 | 0.00 | 0.00 | 73 | 1033.2 |
| 20260901213526 | 77 | 333 | 0.0 | 0.0 | 0.00 | 0.00 | 0.00 | 74 | 1033.3 |
| 20260901211527 | 77 | 331 | 0.0 | 0.0 | 0.00 | 0.00 | 0.00 | 75 | 1033.4 |
| 20260901210528 | 77 | 185 | 0.0 | 0.0 | 0.00 | 0.00 | 0.00 | 75 | 1033.5 |
| 20260901205546 | 77 | 336 | 0.0 | 0.0 | 0.00 | 0.00 | 0.00 | 74 | 1033.5 |
| 20260901204627 | 77 | 320 | 0.0 | 0.0 | 0.00 | 0.00 | 0.00 | 73 | 1033.5 |
| 20260901203626 | 77 | 322 | 0.0 | 0.0 | 0.00 | 0.00 | 0.00 | 75 | 1033.5 |
| 20260901202627 | 77 | 324 | 0.0 | 0.0 | 0.00 | 0.00 | 0.00 | 76 | 1033.6 |
| 20260901201626 | 77 | 323 | 0.0 | 0.0 | 0.00 | 0.00 | 0.00 | 76 | 1033.7 |
| 20260901195726 | 77 | 336 | 0.0 | 0.0 | 0.00 | 0.00 | 0.00 | 77 | 1033.9 |
| 20260901193826 | 76 | 331 | 0.0 | 0.0 | 0.00 | 0.00 | 0.00 | 78 | 1034.0 |
| 20260901192826 | 76 | 322 | 0.0 | 0.0 | 0.00 | 0.00 | 0.00 | 78 | 1034.1 |
| 20260901191827 | 76 | 336 | 0.0 | 0.0 | 0.00 | 0.00 | 0.00 | 78 | 1034.1 |
| 20260901190825 | 76 | 335 | 0.0 | 0.0 | 0.00 | 0.00 | 0.00 | 79 | 1034.1 |
| 20260901185827 | 75 | 334 | 0.0 | 0.0 | 0.00 | 0.00 | 0.00 | 79 | 1034.2 |
| 20260901184827 | 75 | 334 | 0.0 | 0.0 | 0.00 | 0.00 | 0.00 | 79 | 1034.2 |
| 20260901183828 | 74 | 335 | 0.0 | 0.0 | 0.00 | 0.00 | 0.00 | 79 | 1034.3 |
| 20260901182926 | 74 | 336 | 0.0 | 0.0 | 0.00 | 0.00 | 0.00 | 79 | 1034.4 |
| 20260901181927 | 74 | 323 | 0.0 | 0.0 | 0.00 | 0.00 | 0.00 | 78 | 1034.4 |
| 20260901180927 | 73 | 329 | 0.0 | 0.0 | 0.00 | 0.00 | 0.00 | 79 | 1034.5 |
| 20260901175926 | 73 | 337 | 0.0 | 0.0 | 0.00 | 0.00 | 0.00 | 78 | 1034.4 |
| 20260901174026 | 73 | 334 | 0.0 | 0.0 | 0.00 | 0.00 | 0.00 | 79 | 1034.3 |
| 20260901173027 | 72 | 336 | 0.0 | 0.0 | 0.00 | 0.00 | 0.00 | 79 | 1034.3 |
| 20260901171126 | 72 | 325 | 0.0 | 0.0 | 0.00 | 0.00 | 0.00 | 80 | 1034.2 |
| 20260901170126 | 71 | 323 | 0.0 | 0.0 | 0.00 | 0.00 | 0.00 | 81 | 1034.2 |
| 20260901165129 | 71 | 337 | 0.0 | 0.0 | 0.00 | 0.00 | 0.00 | 81 | 1034.2 |